{"data":{"norad_id":48242,"epoch":"2026-05-24T23:05:39.398784Z","epoch_age_seconds":68458,"freshness":"FRESH","line1":"1 48242U 21031AJ  26144.96226156 -.00000043  00000+0 -15158-3 0  9992","line2":"2 48242  87.8949 294.3295 0002017 104.0884 256.0470 13.14501214245249","mean_motion":13.14501214,"eccentricity":0.0002017,"inclination_deg":87.8949,"raan_deg":294.3295,"arg_perigee_deg":104.0884,"mean_anomaly_deg":256.047,"bstar":-0.00015158,"rev_number":24524,"period_min":109.54725523745,"perigee_km":1204.2667754792,"apogee_km":1207.3261342349,"semimajor_km":7583.9334548571,"source":"CELESTRAK","updated_at":"2026-05-25T13:38:22.440302Z"}}